Location: Unspecified
(37.6100°N, 2.7800°W)
Time: 17:45:50
(UTC+00:00)

OTV 5 (USA 277) - Visible Passes

Search period start: 27 May 2018 00:00
Search period end: 06 June 2018 00:00
Orbit: 308 x 326 km, 54.5° (Epoch: 06 May)

Date Brightness Start Highest point End Pass type
(mag) Time Alt. Az. Time Alt. Az. Time Alt. Az.
27 May ? 03:54:39 10° S 03:56:28 16° SE 03:58:19 10° E visible
28 May ? 04:08:07 10° SSW 04:10:43 52° SE 04:13:25 10° NE visible
30 May ? 03:05:14 27° SE 03:05:20 27° SE 03:07:44 10° ENE visible
31 May ? 03:19:07 53° WSW 03:19:39 82° NW 03:22:24 10° NE visible
01 Jun ? 03:32:56 19° W 03:34:07 26° NW 03:36:32 10° NNE visible
02 Jun ? 02:15:49 20° ENE 02:15:49 20° ENE 02:16:53 10° NE visible
02 Jun ? 03:47:30 10° WNW 03:48:45 12° NNW 03:50:01 10° N visible
03 Jun ? 02:29:31 30° N 02:29:31 30° N 02:31:16 10° NNE visible
04 Jun ? 02:43:10 18° NW 02:43:10 18° NW 02:45:09 10° NNE visible
